Location: Bas-Clignon
(44.2000°N, 6.6333°E)
Time: 08:33:00
(UTC+00:00)

SL-16 R/B - Pass Details

Date: 03 February 2023
Orbit: 842 x 846 km, 71.0° (Epoch: 26 March)

Event Time Altitude Azimuth Distance (km) Brightness Sun altitude
Rises 18:29:50 0° 229° (SW) 3,388 6.2 -18.9°
Reaches altitude 10° 18:32:27 10° 237° (WSW) 2,458 5.5 -19.4°
Maximum altitude 18:37:39 37° 304° (NW) 1,288 3.6 -20.3°
Drops below altitude 10° 18:42:54 10° 12° (NNE) 2,473 4.5 -21.2°
Enters shadow 18:44:33 - 18° (NNE) 3,051 4.9 -21.5°
